STARLINK-11593, 63318

Orbit data source: Space-Track

STARLINK-11593, 63318 is a payload satellite owned by SpaceX/Seattle (US) in LEO that was launched on Tue, 18 Mar 2025 UTC via an FALCON 9 launch vehicle from the Air Force Eastern Test Range (AFETR). Payload-class satellites include a variety of spacecraft equipped with specific instruments for various scientific and technological missions. These include communications satellites like Starlink; space stations such as the ISS; scientific satellites like the Hubble; Earth observation satellites from companies like Planet Labs, Umbra, and HawkEye 360; GPS; miniature CubeSats for education and research; and military/defense satellites.

Loading next visibility...
Identifier
63318, 2025-057M
Orbit
LEO
Country
Flag of USUS
Related business
Manufacturer
SpaceX/Seattle
Mission
Operational Commercial Communications
Bus & Motor
STARLINK V2MD, Unknown motor
Mass
960 kg wet, ~910 kg dry
Launch date (UTC)
2025-03-18 (6 months ago)
Launch vehicle
FALCON 9
Launch site
Air Force Eastern Test Range (AFETR)
Object type
Payload
Rocket body
Debris
Shape & HBR
Box + 2 Pan, 14.5 m
Radar Cross Section
36.964 m², Large (>1 m²)

Expand to show TLE details & history
Last TLE update: 13 hours ago

TLE from 13 hours ago
0 STARLINK-11593
1 63318U 25057M   25260.95460511  .00129890  00000-0  99875-3 0  9996
2 63318  42.9985 225.4694 0001409 210.5629 149.5156 15.70870108 30046
Epoch: 2025-09-17T22:54Z
TLE epoch observation values (Epoch: 2025-09-17T22:54:37.881Z)
Latitude
-0.00007°
Longitude
-115.31165°
Altitude
356.998 km
Speed
7.696 km/s
True Right ascension
15h 01m 52s
True Declination
0° 00' 00"
Sunlit
Object was in daylight at epoch
Visualization orbit readout
Latitude
Unknown
Longitude
Unknown
Altitude
Unknown
Speed
Unknown
Apparent Right ascension
Unknown
Apparent Declination
Unknown
Sunlit
N/A
Visualization observer readout
Local Sidereal Time
04:48:01
Azimuth
Unknown
Elevation
Unknown
Doppler factor
Unknown
Orbital elements
Apogee altitude
359.34 km
Perigee altitude
357.442 km
Semi-major axis
6,736.528 km
Eccentricity
0.00014
Inclination
42.9985°
RAAN
225.4694°
Arg. of periapsis
210.5629°
True anomaly
149.52379°
Mean anomaly
149.5156°
Eccentric anomaly
149.51969°
Mean motion
3.92545 °/min
Orbital period
91.71 mins
BSTAR
0.00099875
Loading maneuver chart data...
Computing Atmospheric mass density...
Loading historical data...
Loading historical data...
Loading historical data...
Loading historical data...
Loading historical data...
Loading historical data...
Loading historical data...

Documentation

Showing up to 5 results
|